Regional Weather Roundup
Issued by NWS Boston, MA

Home | Current Version | Previous Version | Text Only | Print | Product List | Glossary On
Versions: 1 2 3 4 5 6 7 8 9 10 11 12 13 14 15 16 17 18 19 20 21 22 23 24 25 26 27
000
ASUS41 KBOX 300210
RWRBOX

REGIONAL WEATHER ROUNDUP
NATIONAL WEATHER SERVICE TAUNTON MA
1000 PM EDT WED MAR 29 2017

NOTE:  "FAIR" INDICATES FEW OR NO CLOUDS BELOW 12,000 FEET WITH NO
SIGNIFICANT WEATHER AND/OR OBSTRUCTIONS TO VISIBILITY.

MAZALL-300300-
EASTERN MASSACHUSETTS

CITY           SKY/WX    TMP DP  RH WIND       PRES   REMARKS
BOSTON         PTCLDY    40  24  53 NW15      30.16R WCI  32
BEVERLY        CLEAR     38  25  59 NW14      30.14R WCI  30
LAWRENCE       CLEAR     37  24  59 NW10      30.17R WCI  30
BEDFORD        PTCLDY    37  20  50 NW12G22   30.16S WCI  29
BLUE HILL        N/A     36  21  54 NW14G23   30.12R WCI  27
NORWOOD        PTCLDY    40  23  50 NW8       30.16R
MARSHFIELD     CLEAR     41  25  52 NW12G18   30.13S
PLYMOUTH       CLEAR     39  23  52 NW9       30.13R
TAUNTON        CLEAR     39  22  50 NW7       30.14R
NEW BEDFORD    CLEAR     39  22  50 N9        30.13S
$$

MAZALL-300300-
CAPE COD AND THE ISLANDS

CITY           SKY/WX    TMP DP  RH WIND       PRES   REMARKS
FALMOUTH       PTCLDY    37  23  56 MISG      30.13S
HYANNIS        PTCLDY    40  28  62 NW14G22   30.09R
CHATHAM        MOCLDY    41  30  65 NW9G17    30.11R
PROVINCETOWN   PTCLDY    40  30  67 NW17G29   30.12R WCI  31
NANTUCKET      CLOUDY    40  28  62 NW15G24   30.10R WCI  32
MARTHAS VNYRD  CLEAR     40  24  53 NW15      30.12R WCI  32
$$

MAZALL-300300-
CENTRAL AND WESTERN MASSACHUSETTS

CITY           SKY/WX    TMP DP  RH WIND       PRES   REMARKS
WORCESTER      CLEAR     34  19  54 NW13      30.14F WCI  25
FITCHBURG      CLEAR     38  22  52 N6        30.18S
ORANGE         CLEAR     34  23  64 NW10      30.19R WCI  26
SPRINGFIELD    CLOUDY    39  19  44 N13       30.19R WCI  32
WESTFIELD      CLOUDY    39  24  55 N8        30.21R
NORTH ADAMS    PTCLDY    36  21  54 NW6       30.22R WCI  31
PITTSFIELD     CLEAR     33  18  53 NW7       30.18S WCI  27
$$

RIZALL-300300-
RHODE ISLAND

CITY           SKY/WX    TMP DP  RH WIND       PRES   REMARKS
PROVIDENCE     PTCLDY    41  20  43 N12       30.16S
NEWPORT        PTCLDY    40  22  48 NW16G23   30.14S WCI  31
BLOCK ISLAND   MOCLDY    40  25  55 N12G20    30.17
SMITHFIELD     CLEAR     38  21  50 N17       30.16R WCI  28
WESTERLY       PTCLDY    42  22  44 N14G20    30.18R
$$

CTZALL-300300-
CONNECTICUT

CITY           SKY/WX    TMP DP  RH WIND       PRES   REMARKS
BRADLEY INTL   CLOUDY    41  23  48 N9        30.21R
HARTFORD       CLOUDY    42  23  46 N9G20     30.21R
BRIDGEPORT     CLEAR     46  23  40 N13       30.20R
DANBURY        MOCLDY    41  23  48 N12G17    30.21R
GROTON         CLOUDY    43  22  43 N15G31    30.18R
NEW HAVEN      MOCLDY    44  24  45 N17G29    30.19R
CHESTER        NOT AVBL
MERIDEN        MOCLDY    44  23  43 N13       30.20R
WILLIMANTIC    CLOUDY    42  20  41 N16G22    30.19S
OXFORD         PTCLDY    39  19  45 N18G24    30.21R WCI  30
$$

MEZ002-015-021-024-NHZ003-005-008-011-012-014-VTZ005-008-300300-
NORTHERN NEW ENGLAND

CITY           SKY/WX    TMP DP  RH WIND       PRES   REMARKS
PORTLAND ME    PTCLDY    37  25  61 N8        30.12R WCI  31
BANGOR ME      CLOUDY    35  29  78 NW8       30.07R WCI  29
CONCORD NH     CLEAR     36  25  64 NW8       30.17R WCI  30
MANCHESTER NH  PTCLDY    38  22  52 NW10      30.16R WCI  31
NASHUA NH      CLEAR     37  24  59 NW13      30.17S WCI  29
PORTSMOUTH NH  PTCLDY    36  25  63 NW10      30.13R WCI  29
JAFFREY NH     CLEAR     35  20  54 VRB5      30.16S WCI  31
KEENE NH       CLEAR     31  26  82 CALM      30.20S
BURLINGTON VT  CLOUDY    38  24  57 N10       30.26R WCI  31
MT. WASHINGTON SNOWSHWR  10  10 100 NW60G76     N/A  VSB 0   WCI -18
$$

NYZ052-076-300300-
EASTERN NEW YORK

CITY           SKY/WX    TMP DP  RH WIND       PRES   REMARKS
ALBANY         PTCLDY    37  20  50 NW8       30.25S WCI  31
NEW YORK CITY  CLEAR     48  24  39 N14G21    30.20R
$$

ANZALL-300300-
MARINE OBSERVATIONS

STATION/POSITION TIME  TEMP    WIND        PRES    VSBY  WAVE
                       AIR SEA DIR/SP/G                  HT/PER
                 (UTC) (F)     (DEG/KT/KT) (MB)    (MI)  (FT/S)
BOSTON BUOY      0050   42 40  320/ 19/ 25 1019.2          4/ 6
BUZZARDS BAY     0100   42     340/ 25/ 27 1020.6R
NANTUCKET SOUND  0050      40              1018.8          3/ 4
MASS BAY-STELLWA 0104   40 39  310/ 17/ 21 1018.8R         4/ 8
ISLE OF SHOALS   0100   40     320/ 18/ 19 1019.5R
S OF BLOCK IS    0155      40                N/A           5/ 5
$$

......................KEY.........................
  SKY/WX - SKY CONDITION/PRESENT WEATHER
  TMP    - TEMPERATURE IN FAHRENHEIT
  DWPT   - DEWPOINT IN FAHRENHEIT
  RH     - RELATIVE HUMIDITY IN PERCENT
  WIND   - DIRECTION AND SPEED IN MPH
  PRES   - MEAN SEA LEVEL PRESSURE IN INCHES OF HG
  WCI    - WIND CHILL INDEX
  VSB    - VISIBILITY IN MILES
  HX     - HEAT INDEX
  TC     - TEMPERATURE IN CELSIUS
  VRB    - VARIABLE WIND DIRECTION
  N/A    - NOT AVAILABLE




USA.gov is the U.S. government's official web portal to all federal, state and local government web resources and services.